Location: Bonny Doon Airfield
(37.0704°N, 122.1252°W)
Time: 20:23:30
(UTC-08:00)

Hubble Space Telescope - Visible Passes

Search period start: 19 January 2019 00:00
Search period end: 29 January 2019 00:00
Orbit: 537 x 540 km, 28.5° (Epoch: 19 January)

Date Brightness Start Highest point End Pass type
(mag) Time Alt. Az. Time Alt. Az. Time Alt. Az.
19 Jan 2.6 05:38:48 18° SSW 05:40:31 23° S 05:43:48 10° ESE visible
20 Jan 2.4 05:29:03 22° SSW 05:29:59 24° S 05:33:20 10° ESE visible
21 Jan 2.4 05:19:15 24° S 05:19:28 24° S 05:22:50 10° ESE visible
22 Jan 2.5 05:09:26 24° S 05:09:26 24° S 05:12:19 10° SE visible
22 Jan 2.9 06:46:48 10° SW 06:49:34 17° SSW 06:52:21 10° SSE visible
23 Jan 2.8 04:59:35 21° SSE 04:59:35 21° SSE 05:01:46 10° SE visible
23 Jan 3.1 06:36:35 10° SW 06:39:01 15° SSW 06:41:28 10° SSE visible
24 Jan 3.2 04:49:45 17° SSE 04:49:45 17° SSE 04:51:10 10° SE visible
24 Jan 3.1 06:26:30 10° SW 06:28:27 13° SSW 06:30:24 10° S visible
25 Jan 3.6 04:39:55 13° SE 04:39:55 13° SE 04:40:31 10° SE visible
25 Jan 3.2 06:16:49 10° SW 06:17:52 11° SSW 06:18:56 10° S visible
